DLH225 LSZH-DTTA

Flight info

Callsign DLH225
Flight time 1h 55m
Altitude 37000
Route VEBIT T53 GERSA N850 ODINA/N0385F190 M727 SRN M858 TORTU/N0453F370 A9 CORSI/N0386F190 M858 RAMEN M732 CAR P161 NOLSI UP161 TUC
Aircraft A20N/M-SDE2E3FGHIRWXY/LB1

Departure

Time 2026-05-04 16:55
Airport Zürich Airport (LSZH)

Arrival

Time 2026-05-04 18:50
Airport Tunis Carthage International Airport (DTTA)
Time Latitude Longitude Altitude Speed Heading
2026-05-04 16:26 47.45346 8.55754 1409 ft 0 kts
2026-05-04 16:42 47.45331 8.55752 1410 ft 3 kts
2026-05-04 16:43 47.45293 8.55746 1407 ft 3 kts
2026-05-04 16:43 47.45265 8.55755 1402 ft 3 kts 318°
2026-05-04 16:43 47.45258 8.55768 1409 ft 2 kts 285°
2026-05-04 16:44 47.45257 8.55770 1409 ft 0 kts 285°
2026-05-04 16:45 47.45261 8.55748 1402 ft 7 kts 283°
2026-05-04 16:46 47.45293 8.55506 1408 ft 11 kts 296°
2026-05-04 16:46 47.45449 8.55334 1409 ft 16 kts 334°
2026-05-04 16:47 47.45647 8.55200 1407 ft 16 kts 335°
2026-05-04 16:47 47.45866 8.55049 1403 ft 18 kts 339°
2026-05-04 16:48 47.46176 8.54832 1402 ft 16 kts 335°
2026-05-04 16:48 47.46274 8.54765 1404 ft 16 kts 335°
2026-05-04 16:49 47.46486 8.54617 1404 ft 17 kts 334°
2026-05-04 16:49 47.46718 8.54459 1400 ft 18 kts 336°
2026-05-04 16:50 47.46947 8.54316 1400 ft 16 kts 335°
2026-05-04 16:50 47.47136 8.54185 1409 ft 14 kts 335°
2026-05-04 16:51 47.47315 8.54062 1403 ft 16 kts 335°
2026-05-04 16:51 47.47417 8.53993 1402 ft 16 kts 335°
2026-05-04 16:51 47.47607 8.53823 1405 ft 12 kts 287°
2026-05-04 16:52 47.47610 8.53786 1403 ft 0 kts 271°
2026-05-04 16:53 47.47483 8.53654 1402 ft 2 kts 155°
2026-05-04 16:53 47.47176 8.53860 1402 ft 88 kts 153°
2026-05-04 16:54 47.46367 8.54419 1408 ft 168 kts 155°
2026-05-04 16:55 47.43547 8.60478 3932 ft 226 kts 63°
2026-05-04 16:55 47.46087 8.62147 5456 ft 216 kts 340°
2026-05-04 16:56 47.47607 8.58604 6564 ft 221 kts 265°
2026-05-04 16:56 47.45694 8.51711 8447 ft 260 kts 236°
2026-05-04 16:57 47.44750 8.49410 9417 ft 263 kts 236°
2026-05-04 16:57 47.42879 8.44700 11258 ft 269 kts 238°
2026-05-04 16:58 47.40049 8.37409 14016 ft 277 kts 239°
2026-05-04 16:58 47.39097 8.34917 14818 ft 280 kts 240°
2026-05-04 16:59 47.37249 8.29769 16462 ft 287 kts 240°
2026-05-04 17:00 47.33458 8.19100 19398 ft 303 kts 240°
2026-05-04 17:00 47.30234 8.10186 20214 ft 353 kts 236°
2026-05-04 17:01 47.26398 8.05506 20715 ft 383 kts 200°
2026-05-04 17:01 47.20998 8.05690 21680 ft 408 kts 162°
2026-05-04 17:02 47.16578 8.11070 22881 ft 432 kts 126°
2026-05-04 17:02 47.15011 8.19725 23986 ft 457 kts 91°
2026-05-04 17:03 47.15578 8.24350 24491 ft 466 kts 74°
2026-05-04 17:03 47.17028 8.28637 24963 ft 473 kts 56°
2026-05-04 17:03 47.22066 8.34812 25895 ft 480 kts 23°
2026-05-04 17:04 47.28600 8.36289 26758 ft 480 kts 350°
2026-05-04 17:04 47.34628 8.32613 27630 ft 469 kts 317°
2026-05-04 17:05 47.38385 8.24974 28226 ft 461 kts 285°
2026-05-04 17:05 47.38706 8.15833 29293 ft 442 kts 252°
2026-05-04 17:06 47.35661 8.08306 30352 ft 427 kts 219°
2026-05-04 17:06 47.33191 8.05938 30780 ft 424 kts 203°
2026-05-04 17:07 47.27524 8.05135 32423 ft 407 kts 168°
2026-05-04 17:07 47.25771 8.06052 33055 ft 402 kts 157°
2026-05-04 17:07 47.22928 8.09414 34215 ft 398 kts 131°
2026-05-04 17:07 47.21625 8.12980 34819 ft 399 kts 111°
2026-05-04 17:08 47.21210 8.17033 35155 ft 406 kts 90°
2026-05-04 17:08 47.23259 8.24730 35501 ft 417 kts 47°
2026-05-04 17:08 47.25508 8.27392 35684 ft 415 kts 25°
2026-05-04 17:09 47.28213 8.28751 35852 ft 409 kts
2026-05-04 17:09 47.31012 8.28656 36012 ft 400 kts 342°
2026-05-04 17:09 47.33553 8.27144 36140 ft 389 kts 320°
2026-05-04 17:10 47.38634 8.25062 36502 ft 403 kts 11°
2026-05-04 17:10 47.43582 8.33949 36760 ft 395 kts 98°
2026-05-04 17:11 47.42866 8.37739 36563 ft 389 kts 127°
2026-05-04 17:11 47.41065 8.40618 36416 ft 383 kts 149°
2026-05-04 17:12 47.33962 8.46401 36458 ft 395 kts 159°
2026-05-04 17:12 47.28830 8.49412 36616 ft 399 kts 166°
2026-05-04 17:13 47.20619 8.51764 36878 ft 404 kts 179°
2026-05-04 17:14 47.12006 8.52573 36870 ft 422 kts 181°
2026-05-04 17:14 47.09054 8.52724 36874 ft 428 kts 181°
2026-05-04 17:15 46.99961 8.53172 36840 ft 447 kts 174°
2026-05-04 17:15 46.93736 8.54633 36935 ft 458 kts 174°
2026-05-04 17:16 46.87615 8.55988 36931 ft 435 kts 175°
2026-05-04 17:16 46.78997 8.57786 36777 ft 400 kts 176°
2026-05-04 17:17 46.76272 8.58313 36711 ft 390 kts 177°
2026-05-04 17:17 46.68429 8.58155 36664 ft 377 kts 190°
2026-05-04 17:18 46.65784 8.57942 36799 ft 385 kts 181°
2026-05-04 17:18 46.60383 8.59001 37061 ft 397 kts 175°
2026-05-04 17:19 46.54832 8.59982 37075 ft 408 kts 177°
2026-05-04 17:19 46.49105 8.60955 37073 ft 420 kts 178°
2026-05-04 17:20 46.43217 8.61863 37087 ft 431 kts 178°
2026-05-04 17:20 46.34141 8.63154 37074 ft 437 kts 178°
2026-05-04 17:21 46.22039 8.64853 37058 ft 436 kts 179°
2026-05-04 17:22 46.15991 8.65699 37059 ft 437 kts 178°
2026-05-04 17:23 46.07154 8.69094 37055 ft 446 kts 158°
2026-05-04 17:23 46.04374 8.71099 37079 ft 448 kts 156°
2026-05-04 17:24 45.96170 8.77551 37071 ft 451 kts 155°
2026-05-04 17:25 45.85153 8.86228 37069 ft 451 kts 155°
2026-05-04 17:26 45.74096 8.94801 37074 ft 452 kts 156°
2026-05-04 17:26 45.65645 9.00612 37074 ft 444 kts 168°
2026-05-04 17:27 45.59621 9.01743 37070 ft 434 kts 184°
2026-05-04 17:28 45.47609 9.00930 37052 ft 433 kts 188°
2026-05-04 17:29 45.29564 8.99479 37055 ft 432 kts 187°
2026-05-04 17:31 45.14542 8.98355 37096 ft 432 kts 188°
2026-05-04 17:32 44.99530 8.97232 37063 ft 432 kts 188°
2026-05-04 17:33 44.90500 8.98216 37067 ft 439 kts 177°
2026-05-04 17:33 44.87476 8.98840 37071 ft 439 kts 176°
2026-05-04 17:34 44.75372 9.01430 37072 ft 439 kts 177°
2026-05-04 17:35 44.61268 9.04350 37083 ft 439 kts 178°
2026-05-04 17:36 44.55222 9.05593 37090 ft 439 kts 178°
2026-05-04 17:36 44.49178 9.06834 37090 ft 439 kts 178°
2026-05-04 17:37 44.43130 9.07907 37098 ft 434 kts 184°
2026-05-04 17:37 44.37140 9.07616 37096 ft 429 kts 189°
2026-05-04 17:38 44.31196 9.06934 37091 ft 429 kts 191°
2026-05-04 17:38 44.25255 9.06179 37061 ft 428 kts 192°
2026-05-04 17:39 44.16361 9.05084 37073 ft 427 kts 191°
2026-05-04 17:39 44.10445 9.04379 37072 ft 427 kts 191°
2026-05-04 17:40 44.04530 9.03678 37067 ft 427 kts 192°
2026-05-04 17:40 43.98616 9.02978 37069 ft 426 kts 192°
2026-05-04 17:41 43.92698 9.02274 37063 ft 426 kts 192°
2026-05-04 17:41 43.86788 9.01555 37039 ft 426 kts 192°
2026-05-04 17:42 43.80885 9.00835 37056 ft 426 kts 192°
2026-05-04 17:42 43.74983 9.00135 37053 ft 426 kts 192°
2026-05-04 17:43 43.69112 8.99451 37045 ft 426 kts 192°
2026-05-04 17:43 43.63208 8.98764 37041 ft 426 kts 192°
2026-05-04 17:44 43.57306 8.98077 37040 ft 425 kts 192°
2026-05-04 17:44 43.51406 8.97378 37039 ft 425 kts 192°
2026-05-04 17:45 43.45515 8.96650 37032 ft 425 kts 192°
2026-05-04 17:45 43.39618 8.95917 37029 ft 426 kts 192°
2026-05-04 17:46 43.33712 8.95228 37026 ft 426 kts 192°
2026-05-04 17:46 43.27801 8.94571 37012 ft 426 kts 192°
2026-05-04 17:47 43.21928 8.93918 37029 ft 425 kts 192°
2026-05-04 17:47 43.16035 8.93232 37026 ft 425 kts 192°
2026-05-04 17:48 43.10139 8.92532 37026 ft 425 kts 192°
2026-05-04 17:48 43.04246 8.91835 37024 ft 425 kts 192°
2026-05-04 17:49 42.98359 8.91143 37028 ft 424 kts 192°
2026-05-04 17:49 42.92471 8.90454 37027 ft 425 kts 192°
2026-05-04 17:50 42.86585 8.89780 37023 ft 425 kts 192°
2026-05-04 17:50 42.80720 8.89114 37029 ft 425 kts 192°
2026-05-04 17:51 42.74819 8.88477 37030 ft 425 kts 192°
2026-05-04 17:51 42.68921 8.87816 37026 ft 425 kts 192°
2026-05-04 17:52 42.63020 8.87138 37023 ft 425 kts 192°
2026-05-04 17:52 42.57123 8.86460 37020 ft 425 kts 192°
2026-05-04 17:53 42.51227 8.85786 37020 ft 425 kts 192°
2026-05-04 17:53 42.45323 8.85112 37019 ft 426 kts 192°
2026-05-04 17:54 42.39423 8.84441 37036 ft 425 kts 192°
2026-05-04 17:54 42.33528 8.83771 37025 ft 425 kts 192°
2026-05-04 17:55 42.27623 8.83103 37038 ft 426 kts 192°
2026-05-04 17:55 42.21747 8.82441 37045 ft 427 kts 192°
2026-05-04 17:56 42.15820 8.81774 37042 ft 428 kts 192°
2026-05-04 17:56 42.09887 8.81110 37031 ft 428 kts 192°
2026-05-04 17:57 42.03951 8.80446 37025 ft 428 kts 192°
2026-05-04 17:57 41.97993 8.79780 37011 ft 429 kts 192°
2026-05-04 17:58 41.92038 8.79116 37019 ft 430 kts 192°
2026-05-04 17:58 41.86080 8.78453 36990 ft 430 kts 192°
2026-05-04 17:59 41.80123 8.77790 37014 ft 430 kts 192°
2026-05-04 18:00 41.71059 8.77925 37037 ft 437 kts 184°
2026-05-04 18:00 41.65028 8.78442 37017 ft 437 kts 183°
2026-05-04 18:01 41.58943 8.78995 37048 ft 438 kts 183°
2026-05-04 18:01 41.52846 8.79534 37046 ft 439 kts 183°
2026-05-04 18:02 41.43713 8.80320 37030 ft 439 kts 183°
2026-05-04 18:02 41.37617 8.80840 37040 ft 439 kts 183°
2026-05-04 18:03 41.31515 8.81360 37040 ft 439 kts 183°
2026-05-04 18:03 41.25411 8.81878 37040 ft 439 kts 183°
2026-05-04 18:04 41.19308 8.82394 37038 ft 440 kts 183°
2026-05-04 18:05 41.10130 8.83169 37039 ft 440 kts 183°
2026-05-04 18:05 41.04045 8.83682 37039 ft 440 kts 183°
2026-05-04 18:06 40.94857 8.84453 37042 ft 442 kts 183°
2026-05-04 18:06 40.88711 8.84968 37042 ft 443 kts 183°
2026-05-04 18:07 40.82568 8.85484 37039 ft 443 kts 183°
2026-05-04 18:07 40.76420 8.85997 37037 ft 443 kts 183°
2026-05-04 18:08 40.70243 8.86509 37044 ft 445 kts 183°
2026-05-04 18:08 40.64061 8.87023 37048 ft 445 kts 183°
2026-05-04 18:09 40.51687 8.88050 37048 ft 445 kts 183°
2026-05-04 18:10 40.45514 8.88561 37047 ft 444 kts 183°
2026-05-04 18:10 40.39382 8.89066 37052 ft 444 kts 183°
2026-05-04 18:11 40.33210 8.89576 37049 ft 444 kts 183°
2026-05-04 18:11 40.27040 8.90087 37051 ft 444 kts 183°
2026-05-04 18:12 40.20860 8.90596 37051 ft 444 kts 183°
2026-05-04 18:12 40.14688 8.91100 37052 ft 444 kts 183°
2026-05-04 18:13 40.08520 8.91605 37055 ft 443 kts 183°
2026-05-04 18:14 39.99308 8.92360 37056 ft 442 kts 183°
2026-05-04 18:14 39.93211 8.92857 37054 ft 442 kts 183°
2026-05-04 18:15 39.80946 8.94571 37064 ft 454 kts 169°
2026-05-04 18:16 39.75164 8.98138 37063 ft 466 kts 155°
2026-05-04 18:16 39.69649 9.02629 37063 ft 469 kts 153°
2026-05-04 18:17 39.61484 9.09534 37063 ft 470 kts 153°
2026-05-04 18:18 39.53201 9.16403 37071 ft 472 kts 153°
2026-05-04 18:18 39.47655 9.20963 37069 ft 472 kts 153°
2026-05-04 18:19 39.39329 9.27791 37077 ft 472 kts 153°
2026-05-04 18:19 39.33774 9.32336 37063 ft 472 kts 153°
2026-05-04 18:20 39.28255 9.36845 37069 ft 472 kts 153°
2026-05-04 18:20 39.22700 9.41376 36795 ft 471 kts 153°
2026-05-04 18:21 39.19926 9.43636 36538 ft 472 kts 153°
2026-05-04 18:21 39.17154 9.45891 36259 ft 472 kts 154°
2026-05-04 18:21 39.14380 9.48145 35997 ft 472 kts 154°
2026-05-04 18:21 39.11588 9.50407 35744 ft 473 kts 154°
2026-05-04 18:22 39.08773 9.52597 35491 ft 472 kts 155°
2026-05-04 18:22 39.05932 9.54717 35246 ft 472 kts 156°
2026-05-04 18:22 39.03075 9.56806 34989 ft 472 kts 156°
2026-05-04 18:22 39.00216 9.58883 34754 ft 472 kts 156°
2026-05-04 18:23 38.97359 9.60959 34519 ft 472 kts 156°
2026-05-04 18:23 38.94500 9.63042 34258 ft 472 kts 156°
2026-05-04 18:23 38.91645 9.65127 34006 ft 473 kts 156°
2026-05-04 18:23 38.88783 9.67221 33734 ft 473 kts 156°
2026-05-04 18:24 38.85920 9.69317 33463 ft 473 kts 156°
2026-05-04 18:24 38.84022 9.70707 33275 ft 473 kts 156°
2026-05-04 18:24 38.80235 9.73478 32932 ft 474 kts 156°
2026-05-04 18:24 38.77370 9.75572 32670 ft 474 kts 156°
2026-05-04 18:25 38.74495 9.77672 32412 ft 474 kts 156°
2026-05-04 18:25 38.72590 9.79061 32239 ft 475 kts 156°
2026-05-04 18:25 38.69719 9.81154 31974 ft 475 kts 156°
2026-05-04 18:25 38.66847 9.83246 31720 ft 475 kts 156°
2026-05-04 18:26 38.63968 9.85339 31453 ft 477 kts 155°
2026-05-04 18:26 38.61075 9.87441 31211 ft 478 kts 155°
2026-05-04 18:26 38.58182 9.89541 30960 ft 479 kts 155°
2026-05-04 18:26 38.55285 9.91643 30722 ft 479 kts 155°
2026-05-04 18:27 38.52382 9.93748 30479 ft 479 kts 155°
2026-05-04 18:27 38.49477 9.95851 30242 ft 479 kts 155°
2026-05-04 18:27 38.46576 9.97950 29964 ft 480 kts 155°
2026-05-04 18:27 38.43672 10.00049 29673 ft 479 kts 155°
2026-05-04 18:28 38.40771 10.02144 29393 ft 479 kts 155°
2026-05-04 18:28 38.37864 10.04241 29117 ft 480 kts 154°
2026-05-04 18:28 38.34997 10.06307 28849 ft 481 kts 154°
2026-05-04 18:28 38.32079 10.08408 28579 ft 481 kts 154°
2026-05-04 18:29 38.29165 10.10504 28311 ft 482 kts 154°
2026-05-04 18:29 38.26245 10.12603 28043 ft 482 kts 154°
2026-05-04 18:29 38.23321 10.14702 27781 ft 483 kts 154°
2026-05-04 18:29 38.20391 10.16803 27514 ft 484 kts 154°
2026-05-04 18:30 38.14515 10.21012 26989 ft 485 kts 154°
2026-05-04 18:30 38.11565 10.23122 26738 ft 487 kts 154°
2026-05-04 18:30 38.08607 10.25236 26488 ft 488 kts 154°
2026-05-04 18:31 38.05616 10.27121 26242 ft 484 kts 163°
2026-05-04 18:31 38.02373 10.28155 25997 ft 477 kts 176°
2026-05-04 18:31 37.99029 10.28414 25759 ft 475 kts 182°
2026-05-04 18:31 37.95770 10.28412 25520 ft 474 kts 185°
2026-05-04 18:32 37.92474 10.28267 25282 ft 474 kts 186°
2026-05-04 18:32 37.89184 10.28063 25045 ft 473 kts 186°
2026-05-04 18:32 37.85905 10.27848 24811 ft 471 kts 186°
2026-05-04 18:32 37.82627 10.27644 24573 ft 470 kts 186°
2026-05-04 18:33 37.79366 10.27457 24336 ft 469 kts 186°
2026-05-04 18:33 37.76110 10.27286 24109 ft 468 kts 185°
2026-05-04 18:33 37.72855 10.27124 23875 ft 467 kts 185°
2026-05-04 18:33 37.69608 10.26969 23649 ft 467 kts 185°
2026-05-04 18:34 37.66369 10.26816 23385 ft 465 kts 185°
2026-05-04 18:34 37.63140 10.26666 23114 ft 464 kts 185°
2026-05-04 18:34 37.59921 10.26516 22849 ft 462 kts 185°
2026-05-04 18:34 37.56715 10.26366 22582 ft 460 kts 185°
2026-05-04 18:35 37.53517 10.26215 22322 ft 459 kts 185°
2026-05-04 18:35 37.50331 10.26066 22050 ft 457 kts 185°
2026-05-04 18:35 37.47158 10.25919 21799 ft 456 kts 185°
2026-05-04 18:35 37.44051 10.25777 21208 ft 450 kts 185°
2026-05-04 18:36 37.40930 10.25635 20347 ft 448 kts 185°
2026-05-04 18:36 37.37817 10.25493 19491 ft 446 kts 185°
2026-05-04 18:36 37.34719 10.25351 18625 ft 445 kts 186°
2026-05-04 18:36 37.31632 10.25209 17715 ft 442 kts 186°
2026-05-04 18:37 37.28567 10.25069 16821 ft 438 kts 185°
2026-05-04 18:37 37.25534 10.24929 15960 ft 434 kts 185°
2026-05-04 18:37 37.22533 10.24792 15121 ft 429 kts 185°
2026-05-04 18:37 37.19591 10.24659 14286 ft 416 kts 185°
2026-05-04 18:38 37.16748 10.24533 13443 ft 402 kts 185°
2026-05-04 18:38 37.14003 10.24411 12634 ft 389 kts 185°
2026-05-04 18:38 37.11320 10.24290 11882 ft 383 kts 185°
2026-05-04 18:38 37.08654 10.24166 11104 ft 383 kts 185°
2026-05-04 18:39 37.05998 10.24042 10570 ft 376 kts 185°
2026-05-04 18:39 37.03491 10.23929 10488 ft 355 kts 185°
2026-05-04 18:39 37.01093 10.23825 10411 ft 335 kts 184°
2026-05-04 18:39 36.98836 10.23727 10332 ft 312 kts 185°
2026-05-04 18:40 36.96741 10.23638 10223 ft 291 kts 185°
2026-05-04 18:40 36.94756 10.23551 10084 ft 281 kts 185°
2026-05-04 18:40 36.92795 10.23460 9635 ft 284 kts 185°
2026-05-04 18:40 36.90838 10.23148 9175 ft 283 kts 198°
2026-05-04 18:41 36.89062 10.22149 8742 ft 278 kts 217°
2026-05-04 18:41 36.87738 10.20442 8330 ft 273 kts 239°
2026-05-04 18:41 36.87095 10.18240 7927 ft 271 kts 262°
2026-05-04 18:41 36.87246 10.15928 7724 ft 264 kts 283°
2026-05-04 18:42 36.87805 10.13798 7594 ft 253 kts 288°
2026-05-04 18:42 36.88409 10.11780 7471 ft 242 kts 288°
2026-05-04 18:42 36.88981 10.09878 7365 ft 232 kts 288°
2026-05-04 18:42 36.89540 10.08001 7209 ft 224 kts 288°
2026-05-04 18:43 36.90095 10.06219 6938 ft 223 kts 292°
2026-05-04 18:43 36.90953 10.04597 6650 ft 226 kts 311°
2026-05-04 18:43 36.92246 10.03463 6338 ft 231 kts 335°
2026-05-04 18:43 36.93816 10.03063 6025 ft 233 kts
2026-05-04 18:44 36.95396 10.03490 5720 ft 234 kts 25°
2026-05-04 18:44 36.96308 10.04197 5518 ft 233 kts 41°
2026-05-04 18:44 36.97486 10.06299 5351 ft 212 kts 72°
2026-05-04 18:44 36.97741 10.08056 5079 ft 203 kts 94°
2026-05-04 18:45 36.97495 10.09766 4729 ft 198 kts 114°
2026-05-04 18:45 36.96821 10.11208 4482 ft 186 kts 133°
2026-05-04 18:45 36.95901 10.12220 4266 ft 173 kts 150°
2026-05-04 18:45 36.94837 10.12817 4018 ft 164 kts 166°
2026-05-04 18:46 36.93716 10.13007 3688 ft 164 kts 181°
2026-05-04 18:46 36.92580 10.12797 3335 ft 167 kts 193°
2026-05-04 18:46 36.91437 10.12384 2897 ft 175 kts 192°
2026-05-04 18:46 36.90219 10.12231 2405 ft 176 kts 174°
2026-05-04 18:47 36.89078 10.12635 2064 ft 164 kts 152°
2026-05-04 18:47 36.88251 10.13430 1958 ft 140 kts 132°
2026-05-04 18:47 36.87834 10.14490 1685 ft 135 kts 112°
2026-05-04 18:47 36.87521 10.15567 1447 ft 130 kts 114°
2026-05-04 18:48 36.87182 10.16591 1198 ft 126 kts 115°
2026-05-04 18:48 36.86839 10.17591 855 ft 124 kts 113°
2026-05-04 18:48 36.86515 10.18557 654 ft 119 kts 111°
2026-05-04 18:48 36.86201 10.19496 482 ft 116 kts 113°
2026-05-04 18:49 36.85888 10.20397 275 ft 111 kts 113°
2026-05-04 18:49 36.85591 10.21293 157 ft 115 kts 114°
2026-05-04 18:49 36.85292 10.22184 42 ft 103 kts 112°
2026-05-04 18:49 36.85061 10.22871 29 ft 61 kts 112°
2026-05-04 18:50 36.84946 10.23219 27 ft 38 kts 112°
2026-05-04 18:50 36.84853 10.23377 26 ft 12 kts 171°
2026-05-04 18:50 36.84797 10.23350 24 ft 8 kts 207°
2026-05-04 18:50 36.84749 10.23322 25 ft 7 kts 205°
2026-05-04 18:51 36.84717 10.23259 25 ft 14 kts 270°
2026-05-04 18:51 36.84752 10.23127 26 ft 19 kts 291°
2026-05-04 18:51 36.84820 10.22930 26 ft 41 kts 292°
2026-05-04 18:51 36.84908 10.22654 29 ft 20 kts 293°
2026-05-04 18:52 36.84964 10.22492 28 ft 20 kts 293°
2026-05-04 18:52 36.84911 10.22370 27 ft 20 kts 189°
2026-05-04 18:52 36.84771 10.22336 30 ft 21 kts 195°
2026-05-04 18:52 36.84626 10.22292 26 ft 22 kts 191°
2026-05-04 18:53 36.84496 10.22213 24 ft 21 kts 258°
2026-05-04 18:53 36.84475 10.22046 24 ft 20 kts 238°
2026-05-04 18:53 36.84376 10.21947 24 ft 13 kts 201°
2026-05-04 18:53 36.84359 10.21898 24 ft 5 kts 280°
2026-05-04 18:54 36.84365 10.21858 24 ft 4 kts 283°
2026-05-04 18:54 36.84367 10.21845 26 ft 1 kts 280°
2026-05-04 18:54 36.84367 10.21843 24 ft 0 kts 280°